Location: Henham
(51.9333°N, 0.2500°E)
Time: 08:14:05
(UTC+00:00)

STARLINK-37 - Pass Details

Date: 23 October 2019
Orbit: 550 x 553 km, 53.0° (Epoch: 11 November)

Event Time Altitude Azimuth Distance (km) Brightness Sun altitude
Rises 17:14:15 0° 268° (W) 2,725 9.4 -4.6°
Reaches altitude 10° 17:16:29 10° 270° (W) 1,831 8.0 -4.9°
Maximum altitude 17:20:39 76° 357° (N) 573 3.7 -5.6°
Drops below altitude 10° 17:24:49 10° 83° (E) 1,830 5.6 -6.2°
Enters shadow 17:25:16 - 84° (E) 2,006 5.8 -6.3°
